Lamar, CO

6:51 AM MDT on May 24, 2018 (GMT -0600)
Lamar Municipal

Weather History for KLAA - November, 2011

Change the Weather History Date:

Wednesday, November 9, 2011

  Actual Average Record
Temperature  
Mean Temperature 38 °F 43 °F  
Max Temperature 50 °F 60 °F 86 °F (1927)
Min Temperature 25 °F 26 °F 6 °F (1950)
Degree Days  
Heating Degree Days 27 22  
Month to date heating degree days 209 184  
Since 1 July heating degree days 615 651  
Cooling Degree Days 0 0  
Month to date cooling degree days 0 0  
Year to date cooling degree days 1533 1121  
Moisture  
Dew Point 25 °F    
Average Humidity 63    
Maximum Humidity 92    
Minimum Humidity 33    
Precipitation  
Precipitation 0.00 in 0.02 in 0.47 in (1919)
Month to date precipitation 0.86 0.19  
Snow  
Snow 0.00 in - - ()
Month to date snowfall 0.0  
Snow Depth 0.00 in    
Sea Level Pressure  
Sea Level Pressure 30.44 in    
Wind  
Wind Speed 7 mph (WSW)    
Max Wind Speed 14 mph    
Max Gust Speed 18 mph    
Visibility 10 miles    
Events      
T = Trace of Precipitation, MM = Missing Value Source: NWS Daily Summary

Daily Weather History Graph

Daily Weather History Graph

Search for Another Location

Airport or City:

Astronomy

Nov. 09, 2011 Rise Set
Actual Time 6:24 AM MST 4:43 PM MST
Civil Twilight 5:57 AM MST 5:11 PM MST
Nautical Twilight 5:25 AM MST 5:43 PM MST
Astronomical Twilight 4:54 AM MST 6:13 PM MST
Moon 3:57 PM MST (11/9) 5:22 AM MST (11/9)
Length of Visible Light 11h 14m
Length of Day
10h 18m
Waxing Gibbous, 99% of the Moon is Illuminated
Nov 9
Waxing Gibbous
Nov 10
Full
Nov 18
Last Quarter
Nov 24
New
Dec 2
First Quarter

Hourly Weather History & Observations

Time (MST) Temp. Windchill Dew Point Humidity Pressure Visibility Wind Dir Wind Speed Gust Speed Precip Events Conditions
12:53 AM 32.0 °F 24.8 °F 28.9 °F 88% 30.35 in 10.0 mi West 8.1 mph - N/A   Clear
1:53 AM 28.9 °F 22.8 °F 27.0 °F 92% 30.36 in 10.0 mi West 5.8 mph - N/A   Partly Cloudy
2:53 AM 30.0 °F 25.2 °F 24.1 °F 79% 30.36 in 10.0 mi West 4.6 mph - N/A   Clear
3:53 AM 30.0 °F 25.2 °F 23.0 °F 75% 30.37 in 10.0 mi NW 4.6 mph - N/A   Clear
4:53 AM 28.0 °F 21.7 °F 21.9 °F 78% 30.41 in 10.0 mi WSW 5.8 mph - N/A   Clear
5:53 AM 28.9 °F 25.2 °F 21.9 °F 75% 30.44 in 10.0 mi WSW 3.5 mph - N/A   Clear
6:53 AM 30.0 °F 23.2 °F 21.9 °F 72% 30.47 in 10.0 mi NW 6.9 mph - N/A   Clear
7:53 AM 34.0 °F 29.8 °F 25.0 °F 70% 30.51 in 10.0 mi West 4.6 mph - N/A   Clear
8:53 AM 37.9 °F 32.1 °F 26.1 °F 62% 30.51 in 10.0 mi WSW 8.1 mph - N/A   Mostly Cloudy
9:53 AM 41.0 °F 36.4 °F 26.1 °F 55% 30.51 in 10.0 mi WSW 6.9 mph - N/A   Clear
10:53 AM 45.0 °F 39.3 °F 28.0 °F 52% 30.48 in 10.0 mi West 11.5 mph - N/A   Clear
11:53 AM 46.9 °F - 26.1 °F 44% 30.45 in 10.0 mi West 11.5 mph - N/A   Clear
12:53 PM 48.0 °F - 26.1 °F 42% 30.43 in 10.0 mi NW 4.6 mph - N/A   Partly Cloudy
1:53 PM 50.0 °F - 23.0 °F 35% 30.42 in 10.0 mi NW 4.6 mph - N/A   Clear
2:53 PM 50.0 °F - 23.0 °F 35% 30.41 in 10.0 mi WNW 9.2 mph - N/A   Clear
3:53 PM 48.0 °F - 21.9 °F 36% 30.41 in 10.0 mi North - - N/A   Clear
4:53 PM 39.9 °F 33.9 °F 28.9 °F 65% 30.44 in 10.0 mi SW 9.2 mph - N/A   Clear
5:53 PM 33.1 °F 26.9 °F 27.0 °F 78% 30.46 in 10.0 mi SSW 6.9 mph - N/A   Clear
6:53 PM 30.0 °F 23.2 °F 27.0 °F 88% 30.47 in 10.0 mi SSW 6.9 mph - N/A   Clear
7:53 PM 28.9 °F 21.1 °F 26.1 °F 89% 30.46 in 10.0 mi SW 8.1 mph - N/A   Clear
8:53 PM 27.0 °F 20.5 °F 25.0 °F 92% 30.47 in 10.0 mi WSW 5.8 mph - N/A   Clear
9:53 PM 27.0 °F 19.5 °F 24.1 °F 89% 30.46 in 10.0 mi SSW 6.9 mph - N/A   Clear
10:53 PM 27.0 °F 19.5 °F 24.1 °F 89% 30.45 in 10.0 mi SW 6.9 mph - N/A   Clear
11:53 PM 28.0 °F 20.0 °F 26.1 °F 92% 30.43 in 10.0 mi WSW 8.1 mph - N/A   Clear